Time,TemperatureF,DewpointF,PressureIn,WindDirection,WindDirectionDegrees,WindSpeedMPH,WindSpeedGustMPH,Humidity,HourlyPrecipIn,Conditions,Clouds,dailyrainin,SoftwareType,DateUTC
2013-04-05 00:02:00,54.0,54.0,29.88,SW,225,4.0,5.4,100,0.00,,,0.00,Rainwise IP-100,2013-04-05 07:02:00,
2013-04-05 00:07:00,54.1,54.0,29.88,WSW,247,2.1,7.2,100,0.00,,,0.00,Rainwise IP-100,2013-04-05 07:07:00,
2013-04-05 00:12:00,54.1,54.0,29.88,SW,225,6.1,8.2,100,0.00,,,0.00,Rainwise IP-100,2013-04-05 07:12:00,
2013-04-05 00:17:00,54.1,54.0,29.88,SSW,202,2.3,6.5,100,0.00,,,0.00,Rainwise IP-100,2013-04-05 07:17:00,
2013-04-05 00:22:00,54.1,54.0,29.88,SSW,202,6.5,7.7,100,0.00,,,0.00,Rainwise IP-100,2013-04-05 07:22:00,
2013-04-05 00:27:00,54.0,54.0,29.88,South,180,3.0,6.8,100,0.00,,,0.00,Rainwise IP-100,2013-04-05 07:27:00,
2013-04-05 00:32:00,54.0,54.0,29.88,South,180,3.3,6.8,100,0.00,,,0.00,Rainwise IP-100,2013-04-05 07:32:00,
2013-04-05 00:37:00,54.0,54.0,29.88,WSW,247,4.2,8.2,100,0.00,,,0.00,Rainwise IP-100,2013-04-05 07:37:00,
2013-04-05 00:42:00,54.0,54.0,29.88,SSW,202,3.3,7.2,100,0.00,,,0.00,Rainwise IP-100,2013-04-05 07:42:00,
2013-04-05 00:47:00,54.0,54.0,29.88,WSW,247,4.9,5.8,100,0.00,,,0.00,Rainwise IP-100,2013-04-05 07:47:00,
2013-04-05 00:52:00,54.0,54.0,29.88,SW,225,2.1,5.1,100,0.00,,,0.00,Rainwise IP-100,2013-04-05 07:52:00,
2013-04-05 00:57:00,54.1,54.0,29.88,SW,225,4.9,5.6,100,0.00,,,0.00,Rainwise IP-100,2013-04-05 07:57:00,
2013-04-05 01:02:00,54.1,54.0,29.88,SW,225,2.8,5.1,100,0.00,,,0.00,Rainwise IP-100,2013-04-05 08:02:00,
2013-04-05 01:07:00,54.1,54.0,29.88,WSW,247,4.7,5.4,100,0.00,,,0.00,Rainwise IP-100,2013-04-05 08:07:00,
2013-04-05 01:12:00,54.0,54.0,29.88,SW,225,2.6,4.7,100,0.00,,,0.00,Rainwise IP-100,2013-04-05 08:12:00,
2013-04-05 01:17:00,54.0,54.0,29.88,SW,225,3.0,4.7,100,0.00,,,0.00,Rainwise IP-100,2013-04-05 08:17:00,
2013-04-05 01:22:00,54.1,54.0,29.88,WSW,247,2.3,3.7,100,0.00,,,0.00,Rainwise IP-100,2013-04-05 08:22:00,
2013-04-05 01:27:00,54.1,54.0,29.89,SSW,202,2.1,5.4,100,0.00,,,0.00,Rainwise IP-100,2013-04-05 08:27:00,
2013-04-05 01:32:00,54.1,54.0,29.88,SW,225,2.3,4.2,100,0.00,,,0.00,Rainwise IP-100,2013-04-05 08:32:00,
2013-04-05 01:37:00,54.0,54.0,29.88,SSW,202,4.0,5.6,100,0.00,,,0.00,Rainwise IP-100,2013-04-05 08:37:00,
2013-04-05 01:42:00,54.0,54.0,29.88,SW,225,4.2,6.3,100,0.00,,,0.00,Rainwise IP-100,2013-04-05 08:42:00,
2013-04-05 01:47:00,54.0,54.0,29.88,WSW,247,2.3,6.5,100,0.00,,,0.00,Rainwise IP-100,2013-04-05 08:47:00,
2013-04-05 01:52:00,53.9,54.0,29.88,SW,225,3.7,4.4,100,0.00,,,0.00,Rainwise IP-100,2013-04-05 08:52:00,
2013-04-05 01:57:00,54.0,54.0,29.88,SW,225,2.6,6.1,100,0.00,,,0.00,Rainwise IP-100,2013-04-05 08:57:00,
2013-04-05 02:02:00,54.1,54.0,29.88,SW,225,1.6,6.5,100,0.00,,,0.00,Rainwise IP-100,2013-04-05 09:02:00,
2013-04-05 02:07:00,54.1,54.0,29.88,SW,225,4.2,6.8,100,0.00,,,0.00,Rainwise IP-100,2013-04-05 09:07:00,
2013-04-05 02:12:00,54.1,54.0,29.88,WSW,247,4.0,5.6,100,0.00,,,0.00,Rainwise IP-100,2013-04-05 09:12:00,
2013-04-05 02:17:00,54.3,54.5,29.88,SSW,202,5.4,6.5,100,0.00,,,0.00,Rainwise IP-100,2013-04-05 09:17:00,
2013-04-05 02:22:00,54.3,54.5,29.88,SW,225,1.9,6.8,100,0.00,,,0.00,Rainwise IP-100,2013-04-05 09:22:00,
2013-04-05 02:27:00,54.4,54.5,29.88,SSW,202,6.8,7.5,100,0.00,,,0.00,Rainwise IP-100,2013-04-05 09:27:00,
2013-04-05 02:32:00,54.3,54.5,29.88,WSW,247,4.0,7.9,100,0.00,,,0.00,Rainwise IP-100,2013-04-05 09:32:00,
2013-04-05 02:37:00,54.3,54.5,29.88,SW,225,7.7,7.7,100,0.00,,,0.00,Rainwise IP-100,2013-04-05 09:37:00,
2013-04-05 02:42:00,54.2,54.0,29.88,SSW,202,4.4,7.7,100,0.00,,,0.00,Rainwise IP-100,2013-04-05 09:42:00,
2013-04-05 02:47:00,54.2,54.0,29.88,WSW,247,3.5,10.0,100,0.00,,,0.00,Rainwise IP-100,2013-04-05 09:47:00,
2013-04-05 02:52:00,54.2,54.0,29.88,WSW,247,1.9,7.7,100,0.00,,,0.00,Rainwise IP-100,2013-04-05 09:52:00,
2013-04-05 02:57:00,54.2,54.0,29.88,SW,225,2.8,6.8,100,0.00,,,0.00,Rainwise IP-100,2013-04-05 09:57:00,
2013-04-05 03:02:00,54.1,54.0,29.87,WNW,292,3.3,6.8,100,0.00,,,0.00,Rainwise IP-100,2013-04-05 10:02:00,
2013-04-05 03:08:00,54.1,54.0,29.87,WSW,247,4.2,7.9,100,0.00,,,0.00,Rainwise IP-100,2013-04-05 10:08:00,
2013-04-05 03:13:00,54.1,54.0,29.87,WSW,247,1.6,7.0,100,0.00,,,0.00,Rainwise IP-100,2013-04-05 10:13:00,
2013-04-05 03:18:00,54.1,54.0,29.87,SW,225,6.3,7.7,100,0.00,,,0.00,Rainwise IP-100,2013-04-05 10:18:00,
2013-04-05 03:23:00,54.1,54.0,29.88,SW,225,4.7,8.6,100,0.00,,,0.00,Rainwise IP-100,2013-04-05 10:23:00,
2013-04-05 03:28:00,54.0,54.0,29.88,SW,225,7.5,8.2,100,0.00,,,0.00,Rainwise IP-100,2013-04-05 10:28:00,
2013-04-05 03:32:00,53.9,54.0,29.88,SW,225,2.8,8.6,100,0.00,,,0.00,Rainwise IP-100,2013-04-05 10:32:00,
2013-04-05 03:38:00,53.9,54.0,29.88,WSW,247,3.7,8.4,100,0.00,,,0.00,Rainwise IP-100,2013-04-05 10:38:00,
2013-04-05 03:43:00,53.8,54.0,29.88,SW,225,3.0,8.9,100,0.00,,,0.00,Rainwise IP-100,2013-04-05 10:43:00,
2013-04-05 03:48:00,53.7,53.5,29.88,SW,225,4.7,9.6,100,0.00,,,0.00,Rainwise IP-100,2013-04-05 10:48:00,
2013-04-05 03:53:00,53.7,53.5,29.88,WSW,247,3.3,6.8,100,0.00,,,0.00,Rainwise IP-100,2013-04-05 10:53:00,
2013-04-05 03:58:00,53.6,53.5,29.88,WSW,247,1.4,6.5,100,0.00,,,0.00,Rainwise IP-100,2013-04-05 10:58:00,
2013-04-05 04:03:00,53.7,53.5,29.87,SW,225,2.6,7.2,100,0.00,,,0.00,Rainwise IP-100,2013-04-05 11:03:00,
2013-04-05 04:08:00,53.6,53.5,29.87,WSW,247,4.4,7.0,100,0.00,,,0.00,Rainwise IP-100,2013-04-05 11:08:00,
2013-04-05 04:13:00,53.6,53.5,29.87,SW,225,4.7,7.5,100,0.00,,,0.00,Rainwise IP-100,2013-04-05 11:13:00,
2013-04-05 04:18:00,53.6,53.5,29.88,SW,225,5.1,5.4,100,0.00,,,0.00,Rainwise IP-100,2013-04-05 11:18:00,
2013-04-05 04:23:00,53.5,53.5,29.87,WSW,247,6.1,6.1,100,0.00,,,0.00,Rainwise IP-100,2013-04-05 11:23:00,
2013-04-05 04:28:00,53.5,53.5,29.88,WSW,247,3.5,8.9,100,0.00,,,0.00,Rainwise IP-100,2013-04-05 11:28:00,
2013-04-05 04:33:00,53.4,53.5,29.88,SW,225,2.3,7.5,100,0.00,,,0.00,Rainwise IP-100,2013-04-05 11:33:00,
2013-04-05 04:38:00,53.4,53.5,29.88,SW,225,4.0,5.6,100,0.00,,,0.00,Rainwise IP-100,2013-04-05 11:38:00,
2013-04-05 04:43:00,53.4,53.5,29.88,SW,225,4.2,6.5,100,0.00,,,0.00,Rainwise IP-100,2013-04-05 11:43:00,
2013-04-05 04:48:00,53.5,53.5,29.88,SW,225,3.7,5.4,100,0.00,,,0.00,Rainwise IP-100,2013-04-05 11:48:00,
2013-04-05 04:53:00,53.5,53.5,29.88,SW,225,2.1,7.0,100,0.00,,,0.00,Rainwise IP-100,2013-04-05 11:53:00,
2013-04-05 04:58:00,53.4,53.5,29.88,SW,225,2.6,7.2,100,0.00,,,0.00,Rainwise IP-100,2013-04-05 11:58:00,
2013-04-05 05:03:00,53.5,53.5,29.88,WSW,247,3.7,5.4,100,0.00,,,0.00,Rainwise IP-100,2013-04-05 12:03:00,
2013-04-05 05:08:00,53.5,53.5,29.88,WSW,247,2.6,4.7,100,0.00,,,0.00,Rainwise IP-100,2013-04-05 12:08:00,
2013-04-05 05:13:00,53.5,53.5,29.88,WSW,247,2.6,4.7,100,0.00,,,0.00,Rainwise IP-100,2013-04-05 12:13:00,
2013-04-05 05:18:00,53.6,53.5,29.88,WSW,247,4.2,5.1,100,0.00,,,0.00,Rainwise IP-100,2013-04-05 12:18:00,
2013-04-05 05:23:00,53.6,53.5,29.88,SSW,202,1.9,4.7,100,0.00,,,0.00,Rainwise IP-100,2013-04-05 12:23:00,
2013-04-05 05:28:00,53.6,53.5,29.88,SW,225,7.5,7.5,100,0.00,,,0.00,Rainwise IP-100,2013-04-05 12:28:00,
2013-04-05 05:33:00,53.5,53.5,29.88,SSW,202,2.8,7.9,100,0.00,,,0.00,Rainwise IP-100,2013-04-05 12:33:00,
2013-04-05 05:38:00,53.5,53.5,29.88,SW,225,3.7,5.6,100,0.00,,,0.00,Rainwise IP-100,2013-04-05 12:38:00,
2013-04-05 05:43:00,53.5,53.5,29.88,WSW,247,3.3,7.2,100,0.00,,,0.00,Rainwise IP-100,2013-04-05 12:43:00,
2013-04-05 05:48:00,53.4,53.5,29.88,WSW,247,5.1,7.0,100,0.00,,,0.00,Rainwise IP-100,2013-04-05 12:48:00,
2013-04-05 05:53:00,53.4,53.5,29.88,WSW,247,2.1,7.5,100,0.00,,,0.00,Rainwise IP-100,2013-04-05 12:53:00,
2013-04-05 05:58:00,53.3,53.5,29.88,SW,225,2.3,7.0,100,0.00,,,0.00,Rainwise IP-100,2013-04-05 12:58:00,
2013-04-05 06:03:00,53.3,53.5,29.88,SSW,202,2.1,5.6,100,0.00,,,0.00,Rainwise IP-100,2013-04-05 13:03:00,
2013-04-05 06:08:00,53.4,53.5,29.88,WSW,247,3.5,4.2,100,0.00,,,0.00,Rainwise IP-100,2013-04-05 13:08:00,
2013-04-05 06:13:00,53.5,53.5,29.88,SSW,202,1.2,4.2,100,0.00,,,0.00,Rainwise IP-100,2013-04-05 13:13:00,
2013-04-05 06:18:00,53.4,53.5,29.88,WSW,247,1.9,4.2,100,0.00,,,0.00,Rainwise IP-100,2013-04-05 13:18:00,
2013-04-05 06:23:00,53.4,53.5,29.89,WSW,247,2.6,4.7,100,0.00,,,0.00,Rainwise IP-100,2013-04-05 13:23:00,
2013-04-05 06:28:00,53.5,53.5,29.89,SSW,202,2.3,3.5,100,0.00,,,0.00,Rainwise IP-100,2013-04-05 13:28:00,
2013-04-05 06:33:00,53.5,53.5,29.88,SW,225,2.3,4.0,100,0.00,,,0.00,Rainwise IP-100,2013-04-05 13:33:00,
2013-04-05 06:38:00,53.5,53.5,29.88,WSW,247,4.0,6.3,100,0.00,,,0.00,Rainwise IP-100,2013-04-05 13:38:00,
2013-04-05 06:43:00,53.5,53.5,29.88,SW,225,1.6,5.4,100,0.00,,,0.00,Rainwise IP-100,2013-04-05 13:43:00,
2013-04-05 06:48:00,53.5,53.5,29.88,South,180,2.3,3.7,100,0.00,,,0.00,Rainwise IP-100,2013-04-05 13:48:00,
2013-04-05 06:53:00,53.5,53.5,29.88,SSW,202,2.1,3.3,100,0.00,,,0.00,Rainwise IP-100,2013-04-05 13:53:00,
2013-04-05 06:58:00,53.5,53.5,29.89,SSW,202,1.4,4.9,100,0.00,,,0.00,Rainwise IP-100,2013-04-05 13:58:00,
2013-04-05 07:03:00,53.5,53.5,29.88,SSW,202,1.6,3.3,100,0.00,,,0.00,Rainwise IP-100,2013-04-05 14:03:00,
2013-04-05 07:08:00,53.5,53.5,29.88,WSW,247,2.3,3.5,100,0.00,,,0.00,Rainwise IP-100,2013-04-05 14:08:00,
2013-04-05 07:13:00,53.5,53.5,29.89,SW,225,1.9,3.0,100,0.00,,,0.00,Rainwise IP-100,2013-04-05 14:13:00,
2013-04-05 07:18:00,53.5,53.5,29.89,South,180,1.6,4.0,100,0.00,,,0.00,Rainwise IP-100,2013-04-05 14:18:00,
2013-04-05 07:23:00,53.5,53.5,29.90,SSE,157,0.0,2.1,100,0.00,,,0.00,Rainwise IP-100,2013-04-05 14:23:00,
2013-04-05 07:28:00,53.6,53.5,29.89,SW,225,1.2,2.8,100,0.00,,,0.00,Rainwise IP-100,2013-04-05 14:28:00,
2013-04-05 07:33:00,53.7,53.5,29.90,North,360,1.4,3.3,100,0.00,,,0.00,Rainwise IP-100,2013-04-05 14:33:00,
2013-04-05 07:38:00,53.8,54.0,29.90,SSW,202,1.4,1.9,100,0.00,,,0.00,Rainwise IP-100,2013-04-05 14:38:00,
2013-04-05 07:43:00,54.0,54.0,29.90,SW,225,1.6,2.3,100,0.00,,,0.00,Rainwise IP-100,2013-04-05 14:43:00,
2013-04-05 07:48:00,54.1,54.0,29.90,SW,225,2.6,3.3,100,0.00,,,0.00,Rainwise IP-100,2013-04-05 14:48:00,
2013-04-05 07:53:00,54.3,54.5,29.90,SW,225,3.3,4.4,100,0.00,,,0.00,Rainwise IP-100,2013-04-05 14:53:00,
2013-04-05 07:58:00,54.3,54.5,29.90,WSW,247,5.6,6.5,100,0.00,,,0.00,Rainwise IP-100,2013-04-05 14:58:00,
2013-04-05 08:03:00,54.2,54.0,29.91,SSW,202,5.6,7.0,100,0.00,,,0.00,Rainwise IP-100,2013-04-05 15:03:00,
2013-04-05 08:08:00,54.0,54.0,29.91,SW,225,1.2,8.4,100,0.00,,,0.00,Rainwise IP-100,2013-04-05 15:08:00,
2013-04-05 08:13:00,54.0,54.0,29.91,WSW,247,3.7,8.2,100,0.00,,,0.00,Rainwise IP-100,2013-04-05 15:13:00,
2013-04-05 08:18:00,53.9,54.0,29.91,SW,225,1.9,5.6,100,0.00,,,0.00,Rainwise IP-100,2013-04-05 15:18:00,
2013-04-05 08:23:00,54.0,54.0,29.91,West,270,4.9,6.3,100,0.00,,,0.00,Rainwise IP-100,2013-04-05 15:23:00,
2013-04-05 08:28:00,54.1,54.0,29.91,SW,225,3.0,6.5,100,0.00,,,0.00,Rainwise IP-100,2013-04-05 15:28:00,
2013-04-05 08:33:00,54.1,54.0,29.91,WSW,247,2.3,5.6,100,0.00,,,0.00,Rainwise IP-100,2013-04-05 15:33:00,
2013-04-05 08:38:00,54.3,54.5,29.91,WSW,247,3.3,4.7,100,0.00,,,0.00,Rainwise IP-100,2013-04-05 15:38:00,
2013-04-05 08:43:00,54.4,54.5,29.91,WSW,247,3.5,4.7,100,0.00,,,0.00,Rainwise IP-100,2013-04-05 15:43:00,
2013-04-05 08:48:00,54.5,54.5,29.91,SSW,202,2.8,7.5,100,0.00,,,0.00,Rainwise IP-100,2013-04-05 15:48:00,
2013-04-05 08:53:00,54.7,54.5,29.91,SW,225,4.0,7.5,100,0.00,,,0.00,Rainwise IP-100,2013-04-05 15:53:00,
2013-04-05 08:58:00,54.8,55.0,29.91,WSW,247,5.1,7.2,100,0.00,,,0.00,Rainwise IP-100,2013-04-05 15:58:00,
2013-04-05 09:03:00,54.7,54.5,29.91,SSW,202,6.3,7.0,100,0.00,,,0.00,Rainwise IP-100,2013-04-05 16:03:00,
2013-04-05 09:08:00,54.8,55.0,29.91,WSW,247,3.5,6.3,100,0.00,,,0.00,Rainwise IP-100,2013-04-05 16:08:00,
2013-04-05 09:13:00,55.1,55.0,29.91,WSW,247,4.0,5.8,100,0.00,,,0.00,Rainwise IP-100,2013-04-05 16:13:00,
2013-04-05 09:18:00,55.2,55.0,29.91,SW,225,3.3,10.3,100,0.00,,,0.00,Rainwise IP-100,2013-04-05 16:18:00,
2013-04-05 09:23:00,55.0,55.0,29.91,SW,225,4.2,7.7,100,0.00,,,0.00,Rainwise IP-100,2013-04-05 16:23:00,
2013-04-05 09:28:00,55.2,55.0,29.91,SSW,202,1.4,8.6,99,0.00,,,0.00,Rainwise IP-100,2013-04-05 16:28:00,
2013-04-05 09:33:00,55.4,55.0,29.91,SSW,202,4.7,8.4,99,0.00,,,0.00,Rainwise IP-100,2013-04-05 16:33:00,
2013-04-05 09:38:00,55.4,54.5,29.91,West,270,6.1,8.4,98,0.00,,,0.00,Rainwise IP-100,2013-04-05 16:38:00,
2013-04-05 09:43:00,55.5,55.0,29.91,SSW,202,2.3,7.2,98,0.00,,,0.00,Rainwise IP-100,2013-04-05 16:43:00,
2013-04-05 09:48:00,55.8,55.0,29.91,SSE,157,3.5,7.9,98,0.00,,,0.00,Rainwise IP-100,2013-04-05 16:48:00,
2013-04-05 09:53:00,56.1,55.0,29.91,WSW,247,4.7,9.6,98,0.00,,,0.00,Rainwise IP-100,2013-04-05 16:53:00,
2013-04-05 09:58:00,55.8,55.0,29.92,WSW,247,3.5,9.8,97,0.00,,,0.00,Rainwise IP-100,2013-04-05 16:58:00,
2013-04-05 10:03:00,55.6,55.0,29.91,WSW,247,8.9,8.9,97,0.00,,,0.00,Rainwise IP-100,2013-04-05 17:03:00,
2013-04-05 10:08:00,55.8,55.0,29.92,SW,225,7.7,9.6,97,0.00,,,0.00,Rainwise IP-100,2013-04-05 17:08:00,
2013-04-05 10:13:00,56.0,55.0,29.92,SW,225,5.6,9.6,97,0.00,,,0.00,Rainwise IP-100,2013-04-05 17:13:00,
2013-04-05 10:18:00,55.7,55.0,29.93,WSW,247,5.4,12.6,97,0.00,,,0.00,Rainwise IP-100,2013-04-05 17:18:00,
2013-04-05 10:23:00,55.7,55.0,29.93,WSW,247,5.6,11.0,97,0.00,,,0.00,Rainwise IP-100,2013-04-05 17:23:00,
2013-04-05 10:28:00,55.7,55.0,29.93,SW,225,9.1,10.3,97,0.00,,,0.00,Rainwise IP-100,2013-04-05 17:28:00,
2013-04-05 10:33:00,55.6,55.0,29.93,SSW,202,7.0,11.2,98,0.00,,,0.00,Rainwise IP-100,2013-04-05 17:33:00,
2013-04-05 10:38:00,55.3,54.5,29.93,West,270,2.1,11.9,98,0.00,,,0.00,Rainwise IP-100,2013-04-05 17:38:00,
2013-04-05 10:43:00,55.2,54.5,29.93,SW,225,6.3,12.4,98,0.00,,,0.00,Rainwise IP-100,2013-04-05 17:43:00,
2013-04-05 10:48:00,55.0,54.5,29.93,WSW,247,2.1,10.3,98,0.00,,,0.00,Rainwise IP-100,2013-04-05 17:48:00,
2013-04-05 10:53:00,55.3,54.5,29.93,SSW,202,4.2,8.2,98,0.00,,,0.00,Rainwise IP-100,2013-04-05 17:53:00,
2013-04-05 10:58:00,55.9,55.0,29.94,SSW,202,6.1,8.2,98,0.00,,,0.00,Rainwise IP-100,2013-04-05 17:58:00,
2013-04-05 11:03:00,56.2,55.0,29.94,SSW,202,5.1,11.9,97,0.00,,,0.00,Rainwise IP-100,2013-04-05 18:03:00,
2013-04-05 11:08:00,56.2,54.5,29.93,SSW,202,5.8,11.4,96,0.00,,,0.00,Rainwise IP-100,2013-04-05 18:08:00,
2013-04-05 11:13:00,56.0,54.5,29.94,SW,225,5.1,12.1,96,0.00,,,0.00,Rainwise IP-100,2013-04-05 18:13:00,
2013-04-05 11:18:00,55.7,54.5,29.94,SW,225,5.8,10.3,96,0.00,,,0.00,Rainwise IP-100,2013-04-05 18:18:00,
2013-04-05 11:23:00,55.5,55.0,29.94,SSW,202,6.5,9.8,97,0.00,,,0.00,Rainwise IP-100,2013-04-05 18:23:00,
2013-04-05 11:28:00,55.4,54.5,29.95,SSW,202,4.2,11.0,97,0.00,,,0.00,Rainwise IP-100,2013-04-05 18:28:00,
2013-04-05 11:33:00,55.3,54.5,29.95,SSW,202,5.6,10.3,97,0.00,,,0.00,Rainwise IP-100,2013-04-05 18:33:00,
2013-04-05 11:38:00,55.3,54.5,29.95,WNW,292,4.0,13.1,97,0.00,,,0.00,Rainwise IP-100,2013-04-05 18:38:00,
2013-04-05 11:43:00,55.3,54.5,29.95,WSW,247,6.3,11.2,98,0.00,,,0.00,Rainwise IP-100,2013-04-05 18:43:00,
2013-04-05 11:48:00,55.3,54.5,29.95,SW,225,6.8,13.3,98,0.00,,,0.00,Rainwise IP-100,2013-04-05 18:48:00,
2013-04-05 11:53:00,55.5,55.0,29.95,SSW,202,4.9,8.6,98,0.00,,,0.00,Rainwise IP-100,2013-04-05 18:53:00,
2013-04-05 11:58:00,55.8,55.0,29.95,SSW,202,8.2,10.5,97,0.00,,,0.00,Rainwise IP-100,2013-04-05 18:58:00,
2013-04-05 12:03:00,55.8,55.0,29.95,WNW,292,3.7,11.4,97,0.00,,,0.00,Rainwise IP-100,2013-04-05 19:03:00,
2013-04-05 12:08:00,55.6,55.0,29.95,SW,225,2.6,12.8,97,0.00,,,0.00,Rainwise IP-100,2013-04-05 19:08:00,
2013-04-05 12:13:00,55.5,55.0,29.95,SW,225,2.6,10.7,97,0.00,,,0.00,Rainwise IP-100,2013-04-05 19:13:00,
2013-04-05 12:19:00,55.5,55.0,29.95,WSW,247,4.4,11.2,98,0.00,,,0.00,Rainwise IP-100,2013-04-05 19:19:00,
2013-04-05 12:24:00,55.3,54.5,29.95,SSW,202,8.2,11.7,98,0.00,,,0.00,Rainwise IP-100,2013-04-05 19:24:00,
2013-04-05 12:29:00,55.3,54.5,29.95,SW,225,8.2,12.8,98,0.00,,,0.00,Rainwise IP-100,2013-04-05 19:29:00,
2013-04-05 12:34:00,55.4,54.5,29.95,WSW,247,2.8,11.7,98,0.00,,,0.00,Rainwise IP-100,2013-04-05 19:34:00,
2013-04-05 12:39:00,55.5,55.0,29.95,SSW,202,10.3,12.6,97,0.00,,,0.00,Rainwise IP-100,2013-04-05 19:39:00,
2013-04-05 12:44:00,55.8,55.0,29.95,WSW,247,6.3,12.4,97,0.00,,,0.00,Rainwise IP-100,2013-04-05 19:44:00,
2013-04-05 12:49:00,56.0,55.0,29.95,SSW,202,3.5,10.3,97,0.00,,,0.00,Rainwise IP-100,2013-04-05 19:49:00,
2013-04-05 12:54:00,56.3,55.0,29.94,WSW,247,3.7,9.1,96,0.00,,,0.00,Rainwise IP-100,2013-04-05 19:54:00,
2013-04-05 12:59:00,56.7,55.0,29.93,SSW,202,7.9,11.0,95,0.00,,,0.00,Rainwise IP-100,2013-04-05 19:59:00,
2013-04-05 13:04:00,57.0,55.0,29.93,WNW,292,3.7,9.8,94,0.00,,,0.00,Rainwise IP-100,2013-04-05 20:04:00,
2013-04-05 13:09:00,57.1,55.0,29.92,SW,225,6.1,8.9,93,0.00,,,0.00,Rainwise IP-100,2013-04-05 20:09:00,
2013-04-05 13:14:00,57.1,54.5,29.92,SW,225,6.8,10.0,92,0.00,,,0.00,Rainwise IP-100,2013-04-05 20:14:00,
2013-04-05 13:19:00,57.7,54.5,29.92,SW,225,4.7,8.4,90,0.00,,,0.00,Rainwise IP-100,2013-04-05 20:19:00,
2013-04-05 13:24:00,58.2,55.0,29.91,SSW,202,8.4,11.4,89,0.00,,,0.00,Rainwise IP-100,2013-04-05 20:24:00,
2013-04-05 13:30:00,58.3,54.5,29.91,SW,225,5.4,12.1,88,0.00,,,0.00,Rainwise IP-100,2013-04-05 20:30:00,
2013-04-05 13:34:00,58.6,55.0,29.90,SW,225,8.2,13.1,87,0.00,,,0.00,Rainwise IP-100,2013-04-05 20:34:00,
2013-04-05 13:40:00,58.9,54.5,29.91,WSW,247,13.1,13.1,86,0.00,,,0.00,Rainwise IP-100,2013-04-05 20:40:00,
2013-04-05 13:45:00,59.0,54.5,29.91,SW,225,11.2,14.2,86,0.00,,,0.00,Rainwise IP-100,2013-04-05 20:45:00,
2013-04-05 13:50:00,58.9,54.5,29.92,WSW,247,8.2,16.6,86,0.00,,,0.00,Rainwise IP-100,2013-04-05 20:50:00,
2013-04-05 13:55:00,58.9,54.5,29.92,West,270,6.3,13.3,86,0.00,,,0.00,Rainwise IP-100,2013-04-05 20:55:00,
2013-04-05 14:00:00,58.6,55.0,29.92,WSW,247,6.5,16.8,87,0.00,,,0.00,Rainwise IP-100,2013-04-05 21:00:00,
2013-04-05 14:05:00,57.6,54.0,29.92,SW,225,11.7,15.6,88,0.00,,,0.00,Rainwise IP-100,2013-04-05 21:05:00,
2013-04-05 14:10:00,56.6,53.5,29.92,WNW,292,7.7,12.6,89,0.00,,,0.00,Rainwise IP-100,2013-04-05 21:10:00,
2013-04-05 14:15:00,56.2,53.5,29.92,WSW,247,10.7,12.6,90,0.00,,,0.00,Rainwise IP-100,2013-04-05 21:15:00,
2013-04-05 14:20:00,56.2,53.5,29.92,SSW,202,6.8,14.0,91,0.00,,,0.00,Rainwise IP-100,2013-04-05 21:20:00,
2013-04-05 14:25:00,56.1,53.5,29.92,WSW,247,7.9,16.8,92,0.00,,,0.00,Rainwise IP-100,2013-04-05 21:25:00,
2013-04-05 14:30:00,56.3,54.0,29.92,WSW,247,8.6,13.8,92,0.00,,,0.00,Rainwise IP-100,2013-04-05 21:30:00,
2013-04-05 14:35:00,56.5,54.0,29.92,WSW,247,9.3,13.1,91,0.00,,,0.00,Rainwise IP-100,2013-04-05 21:35:00,
2013-04-05 14:40:00,56.6,54.0,29.92,SW,225,3.7,11.0,91,0.00,,,0.00,Rainwise IP-100,2013-04-05 21:40:00,
2013-04-05 14:45:00,56.9,54.5,29.92,SSW,202,4.7,12.1,91,0.00,,,0.00,Rainwise IP-100,2013-04-05 21:45:00,
2013-04-05 14:50:00,57.0,54.5,29.92,SW,225,8.4,14.0,91,0.00,,,0.00,Rainwise IP-100,2013-04-05 21:50:00,
2013-04-05 14:55:00,56.8,54.5,29.91,WSW,247,14.5,14.5,91,0.00,,,0.00,Rainwise IP-100,2013-04-05 21:55:00,
2013-04-05 15:00:00,56.8,54.5,29.90,SSW,202,10.0,14.9,91,0.00,,,0.00,Rainwise IP-100,2013-04-05 22:00:00,
2013-04-05 15:05:00,56.7,54.0,29.91,WSW,247,8.9,14.2,91,0.00,,,0.00,Rainwise IP-100,2013-04-05 22:05:00,
2013-04-05 15:10:00,56.6,54.0,29.91,SW,225,7.5,14.2,92,0.00,,,0.00,Rainwise IP-100,2013-04-05 22:10:00,
2013-04-05 15:15:00,56.9,54.5,29.91,SSW,202,11.2,12.6,91,0.00,,,0.00,Rainwise IP-100,2013-04-05 22:15:00,
2013-04-05 15:20:00,57.2,54.5,29.92,SSW,202,7.9,12.4,91,0.00,,,0.00,Rainwise IP-100,2013-04-05 22:20:00,
2013-04-05 15:25:00,57.2,54.0,29.91,West,270,7.0,12.8,90,0.00,,,0.00,Rainwise IP-100,2013-04-05 22:25:00,
2013-04-05 15:30:00,57.5,54.5,29.91,SW,225,8.6,14.0,90,0.00,,,0.00,Rainwise IP-100,2013-04-05 22:30:00,
2013-04-05 15:35:00,58.0,55.0,29.91,SW,225,6.5,12.4,89,0.00,,,0.00,Rainwise IP-100,2013-04-05 22:35:00,
2013-04-05 15:40:00,58.3,54.5,29.91,SW,225,6.3,11.7,87,0.00,,,0.00,Rainwise IP-100,2013-04-05 22:40:00,
2013-04-05 15:45:00,58.6,54.5,29.91,SSW,202,5.1,13.1,86,0.00,,,0.00,Rainwise IP-100,2013-04-05 22:45:00,
2013-04-05 15:50:00,58.8,54.5,29.90,West,270,5.8,10.3,85,0.00,,,0.00,Rainwise IP-100,2013-04-05 22:50:00,
2013-04-05 15:55:00,59.0,54.0,29.91,SW,225,8.4,13.8,84,0.00,,,0.00,Rainwise IP-100,2013-04-05 22:55:00,
2013-04-05 16:00:00,59.0,54.0,29.90,WSW,247,2.1,11.7,83,0.00,,,0.00,Rainwise IP-100,2013-04-05 23:00:00,
2013-04-05 16:05:00,59.0,53.5,29.91,SW,225,9.1,11.0,82,0.00,,,0.00,Rainwise IP-100,2013-04-05 23:05:00,
2013-04-05 16:10:00,58.9,53.5,29.90,SW,225,7.9,13.5,81,0.00,,,0.00,Rainwise IP-100,2013-04-05 23:10:00,
2013-04-05 16:15:00,58.7,53.5,29.90,SW,225,2.1,12.1,82,0.00,,,0.00,Rainwise IP-100,2013-04-05 23:15:00,
2013-04-05 16:20:00,59.0,54.0,29.90,SW,225,5.4,12.4,83,0.00,,,0.00,Rainwise IP-100,2013-04-05 23:20:00,
2013-04-05 16:25:00,59.3,54.0,29.90,West,270,6.1,9.6,82,0.00,,,0.00,Rainwise IP-100,2013-04-05 23:25:00,
2013-04-05 16:30:00,59.1,53.5,29.90,West,270,5.8,12.8,82,0.00,,,0.00,Rainwise IP-100,2013-04-05 23:30:00,
2013-04-05 16:35:00,59.1,54.0,29.90,SSW,202,3.5,12.1,83,0.00,,,0.00,Rainwise IP-100,2013-04-05 23:35:00,
2013-04-05 16:40:00,59.4,54.0,29.89,SSW,202,5.1,9.8,82,0.00,,,0.00,Rainwise IP-100,2013-04-05 23:40:00,
2013-04-05 16:45:00,59.3,54.0,29.90,West,270,7.2,11.7,82,0.00,,,0.00,Rainwise IP-100,2013-04-05 23:45:00,
2013-04-05 16:50:00,59.0,53.5,29.90,WSW,247,4.7,12.1,82,0.00,,,0.00,Rainwise IP-100,2013-04-05 23:50:00,
2013-04-05 16:55:00,58.6,53.5,29.90,West,270,4.7,13.5,82,0.00,,,0.00,Rainwise IP-100,2013-04-05 23:55:00,
2013-04-05 17:00:00,58.9,53.5,29.90,SW,225,3.3,13.3,82,0.00,,,0.00,Rainwise IP-100,2013-04-06 00:00:00,
2013-04-05 17:05:00,58.9,54.0,29.91,SW,225,10.7,13.5,83,0.00,,,0.00,Rainwise IP-100,2013-04-06 00:05:00,
2013-04-05 17:10:00,58.2,53.5,29.91,SW,225,10.3,15.9,84,0.00,,,0.00,Rainwise IP-100,2013-04-06 00:10:00,
2013-04-05 17:15:00,57.8,54.0,29.91,WSW,247,7.9,15.4,85,0.00,,,0.00,Rainwise IP-100,2013-04-06 00:15:00,
2013-04-05 17:20:00,57.9,54.0,29.90,SSW,202,4.7,15.4,86,0.00,,,0.00,Rainwise IP-100,2013-04-06 00:20:00,
2013-04-05 17:25:00,58.0,54.0,29.89,WSW,247,11.0,12.8,86,0.00,,,0.00,Rainwise IP-100,2013-04-06 00:25:00,
2013-04-05 17:30:00,58.0,54.0,29.90,SW,225,8.2,13.8,86,0.00,,,0.00,Rainwise IP-100,2013-04-06 00:30:00,
2013-04-05 17:35:00,57.8,54.0,29.90,WSW,247,9.3,15.9,85,0.00,,,0.00,Rainwise IP-100,2013-04-06 00:35:00,
2013-04-05 17:40:00,57.8,54.0,29.90,SW,225,10.3,13.1,85,0.00,,,0.00,Rainwise IP-100,2013-04-06 00:40:00,
2013-04-05 17:45:00,57.6,53.5,29.90,WSW,247,7.7,13.5,85,0.00,,,0.00,Rainwise IP-100,2013-04-06 00:45:00,
2013-04-05 17:50:00,56.8,53.0,29.89,SW,225,3.7,12.4,86,0.00,,,0.00,Rainwise IP-100,2013-04-06 00:50:00,
2013-04-05 17:55:00,56.4,53.0,29.89,SSW,202,6.1,14.0,87,0.00,,,0.00,Rainwise IP-100,2013-04-06 00:55:00,
2013-04-05 18:00:00,56.4,53.0,29.89,SW,225,6.8,11.2,87,0.00,,,0.00,Rainwise IP-100,2013-04-06 01:00:00,
2013-04-05 18:05:00,56.4,53.0,29.89,WSW,247,5.8,11.4,88,0.00,,,0.00,Rainwise IP-100,2013-04-06 01:05:00,
2013-04-05 18:10:00,56.2,53.0,29.90,SW,225,9.3,13.5,89,0.00,,,0.00,Rainwise IP-100,2013-04-06 01:10:00,
2013-04-05 18:15:00,56.0,53.0,29.90,SW,225,8.2,12.8,89,0.00,,,0.00,Rainwise IP-100,2013-04-06 01:15:00,
2013-04-05 18:20:00,55.8,53.5,29.90,WSW,247,12.1,13.1,90,0.00,,,0.00,Rainwise IP-100,2013-04-06 01:20:00,
2013-04-05 18:25:00,55.7,53.5,29.90,SSW,202,9.6,13.3,91,0.00,,,0.00,Rainwise IP-100,2013-04-06 01:25:00,
2013-04-05 18:30:00,55.7,53.5,29.91,SW,225,5.1,12.6,91,0.00,,,0.00,Rainwise IP-100,2013-04-06 01:30:00,
2013-04-05 18:35:00,55.6,53.5,29.90,SSW,202,7.0,13.3,92,0.00,,,0.00,Rainwise IP-100,2013-04-06 01:35:00,
2013-04-05 18:40:00,55.3,53.5,29.90,SW,225,13.3,13.3,93,0.00,,,0.00,Rainwise IP-100,2013-04-06 01:40:00,
2013-04-05 18:45:00,54.9,53.5,29.90,SSW,202,5.1,13.3,94,0.00,,,0.00,Rainwise IP-100,2013-04-06 01:45:00,
2013-04-05 18:50:00,54.7,53.0,29.90,SSW,202,3.5,11.4,94,0.00,,,0.00,Rainwise IP-100,2013-04-06 01:50:00,
2013-04-05 18:55:00,54.4,53.5,29.88,WSW,247,4.0,11.0,95,0.00,,,0.00,Rainwise IP-100,2013-04-06 01:55:00,
2013-04-05 19:00:00,54.2,53.0,29.89,SW,225,7.7,11.4,95,0.00,,,0.00,Rainwise IP-100,2013-04-06 02:00:00,
2013-04-05 19:05:00,54.0,53.0,29.88,SW,225,5.1,13.3,96,0.00,,,0.00,Rainwise IP-100,2013-04-06 02:05:00,
2013-04-05 19:10:00,53.7,52.0,29.89,SSW,202,10.7,13.5,96,0.00,,,0.00,Rainwise IP-100,2013-04-06 02:10:00,
2013-04-05 19:15:00,53.5,53.0,29.89,West,270,4.4,12.1,97,0.00,,,0.00,Rainwise IP-100,2013-04-06 02:15:00,
2013-04-05 19:20:00,53.4,53.0,29.90,WSW,247,8.6,11.9,97,0.00,,,0.00,Rainwise IP-100,2013-04-06 02:20:00,
2013-04-05 19:25:00,53.1,52.0,29.89,SW,225,5.4,13.1,98,0.00,,,0.00,Rainwise IP-100,2013-04-06 02:25:00,
2013-04-05 19:30:00,52.9,52.0,29.89,SW,225,4.2,12.4,98,0.00,,,0.00,Rainwise IP-100,2013-04-06 02:30:00,
2013-04-05 19:35:00,52.9,52.0,29.89,SW,225,4.9,11.7,98,0.00,,,0.00,Rainwise IP-100,2013-04-06 02:35:00,
2013-04-05 19:40:00,52.9,53.0,29.89,SSW,202,5.4,9.8,99,0.00,,,0.00,Rainwise IP-100,2013-04-06 02:40:00,
2013-04-05 19:45:00,52.8,53.0,29.89,WSW,247,4.0,12.8,99,0.00,,,0.00,Rainwise IP-100,2013-04-06 02:45:00,
2013-04-05 19:50:00,52.7,53.0,29.89,SSW,202,4.9,9.8,99,0.00,,,0.00,Rainwise IP-100,2013-04-06 02:50:00,
2013-04-05 19:55:00,52.7,53.0,29.90,SSW,202,3.3,8.2,99,0.00,,,0.00,Rainwise IP-100,2013-04-06 02:55:00,
2013-04-05 20:00:00,52.7,53.0,29.90,SW,225,5.1,8.2,99,0.00,,,0.00,Rainwise IP-100,2013-04-06 03:00:00,
2013-04-05 20:05:00,52.7,53.0,29.90,WSW,247,4.9,11.9,99,0.00,,,0.00,Rainwise IP-100,2013-04-06 03:05:00,
2013-04-05 20:10:00,52.5,53.0,29.90,SSW,202,4.4,12.6,100,0.00,,,0.00,Rainwise IP-100,2013-04-06 03:10:00,
2013-04-05 20:15:00,52.3,52.0,29.90,SSW,202,9.6,13.3,100,0.00,,,0.00,Rainwise IP-100,2013-04-06 03:15:00,
2013-04-05 20:20:00,52.1,52.0,29.90,SSW,202,6.8,11.2,100,0.00,,,0.00,Rainwise IP-100,2013-04-06 03:20:00,
2013-04-05 20:25:00,52.1,52.0,29.90,SSW,202,4.4,11.7,100,0.00,,,0.00,Rainwise IP-100,2013-04-06 03:25:00,
2013-04-05 20:30:00,52.2,52.0,29.90,SW,225,5.6,13.1,100,0.00,,,0.00,Rainwise IP-100,2013-04-06 03:30:00,
2013-04-05 20:35:00,52.1,52.0,29.91,SSW,202,7.7,10.3,100,0.00,,,0.00,Rainwise IP-100,2013-04-06 03:35:00,
2013-04-05 20:40:00,52.0,52.0,29.91,SW,225,4.4,10.5,100,0.00,,,0.00,Rainwise IP-100,2013-04-06 03:40:00,
2013-04-05 20:45:00,52.0,52.0,29.91,SW,225,7.7,9.1,100,0.00,,,0.00,Rainwise IP-100,2013-04-06 03:45:00,
2013-04-05 20:50:00,52.0,52.0,29.91,WSW,247,6.8,12.1,100,0.00,,,0.00,Rainwise IP-100,2013-04-06 03:50:00,
2013-04-05 20:55:00,51.9,52.0,29.91,SSW,202,5.8,11.7,100,0.00,,,0.00,Rainwise IP-100,2013-04-06 03:55:00,
2013-04-05 21:00:00,51.8,52.0,29.91,SW,225,4.2,12.8,100,0.00,,,0.00,Rainwise IP-100,2013-04-06 04:00:00,
2013-04-05 21:05:00,51.7,52.0,29.92,SW,225,9.3,13.1,100,0.00,,,0.00,Rainwise IP-100,2013-04-06 04:05:00,
2013-04-05 21:10:00,51.7,52.0,29.92,SSW,202,3.0,14.0,100,0.00,,,0.00,Rainwise IP-100,2013-04-06 04:10:00,
2013-04-05 21:11:00,51.7,52.0,29.91,SW,225,3.0,12.4,100,0.00,,,0.00,Rainwise IP-100,2013-04-06 04:11:00,
2013-04-05 21:16:00,51.7,52.0,29.92,SW,225,5.1,10.5,100,0.00,,,0.00,Rainwise IP-100,2013-04-06 04:16:00,
2013-04-05 21:19:00,51.7,52.0,29.92,WSW,247,4.0,10.5,100,0.00,,,0.00,Rainwise IP-100,2013-04-06 04:19:00,
2013-04-05 21:24:00,51.6,52.0,29.91,WSW,247,6.8,11.4,100,0.00,,,0.00,Rainwise IP-100,2013-04-06 04:24:00,
2013-04-05 21:29:00,51.5,52.0,29.92,SW,225,6.1,8.6,100,0.00,,,0.00,Rainwise IP-100,2013-04-06 04:29:00,
2013-04-05 21:34:00,51.5,52.0,29.92,WSW,247,2.8,8.2,100,0.00,,,0.00,Rainwise IP-100,2013-04-06 04:34:00,
2013-04-05 21:39:00,51.6,52.0,29.93,SW,225,4.0,8.6,100,0.00,,,0.00,Rainwise IP-100,2013-04-06 04:39:00,
2013-04-05 21:44:00,51.6,52.0,29.92,SSW,202,4.4,7.7,100,0.00,,,0.00,Rainwise IP-100,2013-04-06 04:44:00,
2013-04-05 21:49:00,51.5,52.0,29.93,West,270,4.9,8.6,100,0.00,,,0.00,Rainwise IP-100,2013-04-06 04:49:00,
2013-04-05 21:54:00,51.5,52.0,29.93,SSW,202,4.9,7.2,100,0.00,,,0.00,Rainwise IP-100,2013-04-06 04:54:00,
2013-04-05 21:59:00,51.5,52.0,29.93,West,270,4.0,8.9,100,0.00,,,0.00,Rainwise IP-100,2013-04-06 04:59:00,
2013-04-05 22:04:00,51.4,51.0,29.93,SW,225,6.1,9.1,100,0.00,,,0.00,Rainwise IP-100,2013-04-06 05:04:00,
2013-04-05 22:09:00,51.3,51.0,29.93,West,270,3.3,7.9,100,0.00,,,0.00,Rainwise IP-100,2013-04-06 05:09:00,
2013-04-05 22:14:00,51.3,51.0,29.93,SSW,202,3.5,8.6,100,0.00,,,0.00,Rainwise IP-100,2013-04-06 05:14:00,
2013-04-05 22:19:00,51.4,51.0,29.94,SW,225,3.3,8.2,100,0.00,,,0.00,Rainwise IP-100,2013-04-06 05:19:00,
2013-04-05 22:24:00,51.4,51.0,29.93,WSW,247,4.0,7.5,100,0.00,,,0.00,Rainwise IP-100,2013-04-06 05:24:00,
2013-04-05 22:29:00,51.3,51.0,29.94,WSW,247,4.9,8.2,100,0.00,,,0.00,Rainwise IP-100,2013-04-06 05:29:00,
2013-04-05 22:34:00,51.3,51.0,29.94,West,270,3.7,6.8,100,0.00,,,0.00,Rainwise IP-100,2013-04-06 05:34:00,
2013-04-05 22:39:00,51.4,51.0,29.93,WSW,247,4.7,6.5,100,0.00,,,0.00,Rainwise IP-100,2013-04-06 05:39:00,
2013-04-05 22:44:00,51.4,51.0,29.94,SW,225,4.7,7.7,100,0.00,,,0.00,Rainwise IP-100,2013-04-06 05:44:00,
2013-04-05 22:49:00,51.4,51.0,29.93,SSW,202,5.4,9.3,100,0.00,,,0.00,Rainwise IP-100,2013-04-06 05:49:00,
2013-04-05 22:54:00,51.4,51.0,29.93,WSW,247,7.5,8.9,100,0.00,,,0.00,Rainwise IP-100,2013-04-06 05:54:00,
2013-04-05 22:59:00,51.5,52.0,29.94,SW,225,10.0,10.0,100,0.00,,,0.00,Rainwise IP-100,2013-04-06 05:59:00,
2013-04-05 23:04:00,51.6,52.0,29.93,WSW,247,6.8,10.3,100,0.00,,,0.00,Rainwise IP-100,2013-04-06 06:04:00,
2013-04-05 23:09:00,51.7,52.0,29.94,SW,225,4.2,7.5,100,0.00,,,0.00,Rainwise IP-100,2013-04-06 06:09:00,
2013-04-05 23:14:00,51.8,52.0,29.94,SW,225,4.7,7.2,100,0.00,,,0.00,Rainwise IP-100,2013-04-06 06:14:00,
2013-04-05 23:19:00,51.9,52.0,29.94,WSW,247,6.5,9.8,100,0.00,,,0.00,Rainwise IP-100,2013-04-06 06:19:00,
2013-04-05 23:24:00,51.9,52.0,29.93,SW,225,7.2,9.1,100,0.00,,,0.00,Rainwise IP-100,2013-04-06 06:24:00,
2013-04-05 23:29:00,51.9,52.0,29.93,SSW,202,4.9,7.7,100,0.00,,,0.00,Rainwise IP-100,2013-04-06 06:29:00,
2013-04-05 23:34:00,52.0,52.0,29.93,WSW,247,4.9,8.2,100,0.00,,,0.00,Rainwise IP-100,2013-04-06 06:34:00,
2013-04-05 23:39:00,52.0,52.0,29.93,SW,225,3.5,10.5,100,0.00,,,0.00,Rainwise IP-100,2013-04-06 06:39:00,
2013-04-05 23:44:00,52.1,52.0,29.93,SSW,202,4.2,8.6,100,0.00,,,0.00,Rainwise IP-100,2013-04-06 06:44:00,
2013-04-05 23:49:00,52.2,52.0,29.94,SW,225,4.0,7.0,100,0.00,,,0.00,Rainwise IP-100,2013-04-06 06:49:00,
2013-04-05 23:55:00,52.3,52.0,29.93,SW,225,8.2,8.2,100,0.00,,,0.00,Rainwise IP-100,2013-04-06 06:55:00,